ANZ820L NZCH-NZTG

Flight info

Callsign ANZ820L
Flight time N/A
Altitude 23000
Route GUTBU2P ODOWD Y819 AGSOP Y737 GOPRO H482 KAPTI Y273 DAGOM Y715 ARETI Y539 PARRA Y505 OROPI OROPI2A
Aircraft DH8D/M-SDE2E3FGRY/H

Departure

Time 2026-05-07 05:09
Airport Christchurch International Airport (NZCH)

Arrival

Time N/A
Airport Tauranga Airport (NZTG)
Time Latitude Longitude Altitude Speed Heading
2026-05-07 04:47 -43.48964 172.53838 109 ft 0 kts 39°
2026-05-07 04:57 -43.48963 172.53838 109 ft 0 kts 39°
2026-05-07 04:58 -43.48968 172.53830 109 ft 2 kts 66°
2026-05-07 04:59 -43.48975 172.53818 109 ft 2 kts 38°
2026-05-07 04:59 -43.48986 172.53806 109 ft 2 kts 39°
2026-05-07 04:59 -43.48999 172.53790 109 ft 2 kts 39°
2026-05-07 04:59 -43.49009 172.53780 109 ft 1 kts 39°
2026-05-07 05:00 -43.49014 172.53773 109 ft 0 kts 39°
2026-05-07 05:00 -43.49020 172.53767 109 ft 2 kts 24°
2026-05-07 05:00 -43.49034 172.53764 109 ft 2 kts 351°
2026-05-07 05:00 -43.49046 172.53770 109 ft 2 kts 323°
2026-05-07 05:01 -43.49056 172.53784 109 ft 1 kts 306°
2026-05-07 05:01 -43.49058 172.53789 109 ft 1 kts 309°
2026-05-07 05:01 -43.49059 172.53790 109 ft 0 kts 310°
2026-05-07 05:03 -43.49054 172.53783 109 ft 2 kts 310°
2026-05-07 05:03 -43.49040 172.53760 109 ft 5 kts 310°
2026-05-07 05:04 -43.49019 172.53725 109 ft 7 kts 309°
2026-05-07 05:04 -43.48994 172.53685 109 ft 9 kts 310°
2026-05-07 05:04 -43.48962 172.53633 109 ft 8 kts 310°
2026-05-07 05:04 -43.48925 172.53572 111 ft 5 kts 305°
2026-05-07 05:05 -43.48927 172.53523 112 ft 6 kts 230°
2026-05-07 05:05 -43.48961 172.53482 112 ft 7 kts 219°
2026-05-07 05:05 -43.49013 172.53421 112 ft 10 kts 220°
2026-05-07 05:05 -43.49069 172.53357 113 ft 11 kts 219°
2026-05-07 05:06 -43.49123 172.53294 115 ft 11 kts 220°
2026-05-07 05:06 -43.49195 172.53212 115 ft 13 kts 219°
2026-05-07 05:06 -43.49259 172.53139 118 ft 13 kts 219°
2026-05-07 05:06 -43.49313 172.53076 120 ft 12 kts 220°
2026-05-07 05:07 -43.49397 172.52979 122 ft 13 kts 220°
2026-05-07 05:07 -43.49462 172.52904 124 ft 13 kts 219°
2026-05-07 05:07 -43.49513 172.52805 125 ft 13 kts 265°
2026-05-07 05:07 -43.49505 172.52679 128 ft 12 kts 275°
2026-05-07 05:08 -43.49472 172.52593 128 ft 6 kts 311°
2026-05-07 05:08 -43.49449 172.52579 128 ft 3 kts 18°
2026-05-07 05:08 -43.49384 172.52647 126 ft 40 kts 40°
2026-05-07 05:08 -43.49063 172.53020 118 ft 107 kts 40°
2026-05-07 05:09 -43.48432 172.53754 209 ft 140 kts 40°
2026-05-07 05:09 -43.47538 172.54866 646 ft 157 kts 39°
2026-05-07 05:09 -43.46707 172.55685 1107 ft 162 kts 27°
2026-05-07 05:09 -43.45798 172.56268 1631 ft 164 kts 20°
2026-05-07 05:10 -43.44648 172.56938 2174 ft 172 kts 19°
2026-05-07 05:10 -43.43569 172.57552 2269 ft 192 kts 19°
2026-05-07 05:10 -43.42345 172.58278 2589 ft 199 kts 19°
2026-05-07 05:10 -43.41060 172.59070 3056 ft 203 kts 19°
2026-05-07 05:11 -43.39951 172.59772 3487 ft 203 kts 19°
2026-05-07 05:11 -43.38613 172.60629 3925 ft 208 kts 18°
2026-05-07 05:11 -43.37323 172.61467 4464 ft 207 kts 18°
2026-05-07 05:11 -43.36373 172.62089 4830 ft 207 kts 17°
2026-05-07 05:12 -43.35697 172.62535 5098 ft 208 kts 17°
2026-05-07 05:12 -43.34382 172.63400 5552 ft 211 kts 16°
2026-05-07 05:12 -43.32434 172.64696 6233 ft 213 kts 16°